Wetterdaten: Mittwoch, 21.12.2011
Datum Zeit Temp. A. Feuchte A. Luftdruck Regen Wind Richtung Richtung Sonnenschein UV Solar Windben
21.12.2011 00:00 4,9 C 92 % 1011,3 hPa 0,0 mm 8,0 km/h (2 Bft) W 270 0 min 0 UV-I 0 W/m 22,5 km/h (4 Bft)
21.12.2011 00:10 4,9 C 92 % 1011,3 hPa 0,0 mm 8,0 km/h (2 Bft) W 270 0 min 0 UV-I 0 W/m 25,7 km/h (4 Bft)
21.12.2011 00:20 4,9 C 92 % 1011,5 hPa 0,0 mm 8,0 km/h (2 Bft) W 270 0 min 0 UV-I 0 W/m 22,5 km/h (4 Bft)
21.12.2011 00:30 4,8 C 92 % 1011,6 hPa 0,0 mm 9,7 km/h (2 Bft) W 270 0 min 0 UV-I 0 W/m 24,1 km/h (4 Bft)
21.12.2011 00:40 4,8 C 92 % 1011,6 hPa 0,0 mm 8,0 km/h (2 Bft) W 270 0 min 0 UV-I 0 W/m 20,9 km/h (4 Bft)
21.12.2011 00:50 4,7 C 92 % 1011,9 hPa 0,0 mm 8,0 km/h (2 Bft) W-NW 292 0 min 0 UV-I 0 W/m 25,7 km/h (4 Bft)
21.12.2011 01:00 4,6 C 92 % 1011,9 hPa 0,0 mm 8,0 km/h (2 Bft) W 270 0 min 0 UV-I 0 W/m 24,1 km/h (4 Bft)
21.12.2011 01:10 4,6 C 92 % 1012,2 hPa 0,0 mm 6,4 km/h (2 Bft) W 270 0 min 0 UV-I 0 W/m 20,9 km/h (4 Bft)
21.12.2011 01:20 4,5 C 92 % 1012,3 hPa 0,0 mm 6,4 km/h (2 Bft) W-NW 292 0 min 0 UV-I 0 W/m 20,9 km/h (4 Bft)
21.12.2011 01:30 4,4 C 92 % 1012,5 hPa 0,3 mm 8,0 km/h (2 Bft) NW 315 0 min 0 UV-I 0 W/m 22,5 km/h (4 Bft)
21.12.2011 01:40 4,4 C 92 % 1012,3 hPa 0,0 mm 6,4 km/h (2 Bft) W 270 0 min 0 UV-I 0 W/m 17,7 km/h (3 Bft)
21.12.2011 01:50 4,4 C 92 % 1012,4 hPa 0,0 mm 4,8 km/h (1 Bft) W 270 0 min 0 UV-I 0 W/m 16,1 km/h (3 Bft)
21.12.2011 02:00 4,3 C 91 % 1012,5 hPa 0,0 mm 6,4 km/h (2 Bft) W 270 0 min 0 UV-I 0 W/m 17,7 km/h (3 Bft)
21.12.2011 02:10 4,2 C 91 % 1012,5 hPa 0,0 mm 6,4 km/h (2 Bft) W 270 0 min 0 UV-I 0 W/m 20,9 km/h (4 Bft)
21.12.2011 02:20 4,2 C 91 % 1012,6 hPa 0,0 mm 6,4 km/h (2 Bft) W 270 0 min 0 UV-I 0 W/m 16,1 km/h (3 Bft)
21.12.2011 02:30 4,2 C 91 % 1012,9 hPa 0,0 mm 6,4 km/h (2 Bft) W 270 0 min 0 UV-I 0 W/m 14,5 km/h (3 Bft)
21.12.2011 02:40 4,1 C 91 % 1013,0 hPa 0,0 mm 6,4 km/h (2 Bft) W 270 0 min 0 UV-I 0 W/m 16,1 km/h (3 Bft)
21.12.2011 02:50 4,1 C 91 % 1013,1 hPa 0,0 mm 6,4 km/h (2 Bft) W 270 0 min 0 UV-I 0 W/m 16,1 km/h (3 Bft)
21.12.2011 03:00 4,1 C 91 % 1013,2 hPa 0,0 mm 4,8 km/h (1 Bft) W-NW 292 0 min 0 UV-I 0 W/m 14,5 km/h (3 Bft)
21.12.2011 03:10 4,1 C 91 % 1013,1 hPa 0,0 mm 4,8 km/h (1 Bft) W 270 0 min 0 UV-I 0 W/m 16,1 km/h (3 Bft)
21.12.2011 03:20 4,1 C 91 % 1013,1 hPa 0,0 mm 3,2 km/h (1 Bft) W 270 0 min 0 UV-I 0 W/m 12,9 km/h (3 Bft)
21.12.2011 03:30 4,1 C 91 % 1013,2 hPa 0,0 mm 3,2 km/h (1 Bft) W 270 0 min 0 UV-I 0 W/m 12,9 km/h (3 Bft)
21.12.2011 03:40 4,0 C 91 % 1013,2 hPa 0,0 mm 4,8 km/h (1 Bft) W 270 0 min 0 UV-I 0 W/m 14,5 km/h (3 Bft)
21.12.2011 03:50 3,9 C 91 % 1013,2 hPa 0,0 mm 4,8 km/h (1 Bft) W 270 0 min 0 UV-I 0 W/m 14,5 km/h (3 Bft)
21.12.2011 04:00 3,9 C 91 % 1013,3 hPa 0,3 mm 8,0 km/h (2 Bft) W 270 0 min 0 UV-I 0 W/m 22,5 km/h (4 Bft)
21.12.2011 04:10 3,8 C 91 % 1013,2 hPa 0,0 mm 8,0 km/h (2 Bft) W 270 0 min 0 UV-I 0 W/m 22,5 km/h (4 Bft)
21.12.2011 04:20 3,8 C 91 % 1013,0 hPa 0,0 mm 6,4 km/h (2 Bft) W 270 0 min 0 UV-I 0 W/m 16,1 km/h (3 Bft)
21.12.2011 04:30 3,8 C 91 % 1013,1 hPa 0,0 mm 4,8 km/h (1 Bft) W-SW 247 0 min 0 UV-I 0 W/m 16,1 km/h (3 Bft)
21.12.2011 04:40 3,8 C 91 % 1013,1 hPa 0,0 mm 6,4 km/h (2 Bft) SW 225 0 min 0 UV-I 0 W/m 16,1 km/h (3 Bft)
21.12.2011 04:50 3,8 C 91 % 1013,4 hPa 0,0 mm 4,8 km/h (1 Bft) W-SW 247 0 min 0 UV-I 0 W/m 17,7 km/h (3 Bft)
21.12.2011 05:00 3,7 C 91 % 1013,4 hPa 0,0 mm 6,4 km/h (2 Bft) W 270 0 min 0 UV-I 0 W/m 16,1 km/h (3 Bft)
21.12.2011 05:10 3,7 C 91 % 1013,3 hPa 0,0 mm 6,4 km/h (2 Bft) W-SW 247 0 min 0 UV-I 0 W/m 17,7 km/h (3 Bft)
21.12.2011 05:20 3,7 C 91 % 1013,4 hPa 0,0 mm 8,0 km/h (2 Bft) SW 225 0 min 0 UV-I 0 W/m 19,3 km/h (3 Bft)
21.12.2011 05:30 3,7 C 91 % 1013,5 hPa 0,0 mm 4,8 km/h (1 Bft) W 270 0 min 0 UV-I 0 W/m 14,5 km/h (3 Bft)
21.12.2011 05:40 3,6 C 91 % 1013,5 hPa 0,0 mm 3,2 km/h (1 Bft) W 270 0 min 0 UV-I 0 W/m 9,7 km/h (2 Bft)
21.12.2011 05:50 3,6 C 91 % 1013,6 hPa 0,0 mm 3,2 km/h (1 Bft) W 270 0 min 0 UV-I 0 W/m 11,3 km/h (2 Bft)
21.12.2011 06:00 3,6 C 91 % 1013,7 hPa 0,0 mm 3,2 km/h (1 Bft) W 270 0 min 0 UV-I 0 W/m 11,3 km/h (2 Bft)
21.12.2011 06:10 3,5 C 91 % 1013,8 hPa 0,0 mm 3,2 km/h (1 Bft) W 270 0 min 0 UV-I 0 W/m 9,7 km/h (2 Bft)
21.12.2011 06:20 3,5 C 91 % 1013,8 hPa 0,0 mm 3,2 km/h (1 Bft) W 270 0 min 0 UV-I 0 W/m 11,3 km/h (2 Bft)
21.12.2011 06:30 3,5 C 91 % 1013,7 hPa 0,0 mm 3,2 km/h (1 Bft) SW 225 0 min 0 UV-I 0 W/m 11,3 km/h (2 Bft)
21.12.2011 06:40 3,5 C 91 % 1013,9 hPa 0,0 mm 3,2 km/h (1 Bft) W 270 0 min 0 UV-I 0 W/m 11,3 km/h (2 Bft)
21.12.2011 06:50 3,4 C 91 % 1013,8 hPa 0,0 mm 3,2 km/h (1 Bft) W-SW 247 0 min 0 UV-I 0 W/m 9,7 km/h (2 Bft)
21.12.2011 07:00 3,4 C 91 % 1013,8 hPa 0,0 mm 4,8 km/h (1 Bft) W-SW 247 0 min 0 UV-I 0 W/m 11,3 km/h (2 Bft)
21.12.2011 07:10 3,4 C 91 % 1013,9 hPa 0,0 mm 3,2 km/h (1 Bft) W-SW 247 0 min 0 UV-I 0 W/m 11,3 km/h (2 Bft)
21.12.2011 07:20 3,4 C 91 % 1014,0 hPa 0,0 mm 3,2 km/h (1 Bft) W-SW 247 0 min 0 UV-I 0 W/m 11,3 km/h (2 Bft)
21.12.2011 07:30 3,4 C 91 % 1014,1 hPa 0,0 mm 3,2 km/h (1 Bft) W-SW 247 0 min 0 UV-I 0 W/m 9,7 km/h (2 Bft)
21.12.2011 07:40 3,4 C 91 % 1014,1 hPa 0,0 mm 1,6 km/h (1 Bft) SW 225 0 min 0 UV-I 0 W/m 8,0 km/h (2 Bft)
21.12.2011 07:50 3,4 C 91 % 1014,1 hPa 0,0 mm 3,2 km/h (1 Bft) W-SW 247 0 min 0 UV-I 0 W/m 9,7 km/h (2 Bft)
21.12.2011 08:00 3,4 C 91 % 1014,1 hPa 0,0 mm 3,2 km/h (1 Bft) W-SW 247 0 min 0 UV-I 0 W/m 9,7 km/h (2 Bft)
21.12.2011 08:10 3,4 C 91 % 1014,0 hPa 0,0 mm 3,2 km/h (1 Bft) W-SW 247 0 min 0 UV-I 0 W/m 9,7 km/h (2 Bft)
21.12.2011 08:20 3,4 C 91 % 1014,2 hPa 0,0 mm 3,2 km/h (1 Bft) W-SW 247 0 min 0 UV-I 0 W/m 9,7 km/h (2 Bft)
21.12.2011 08:30 3,4 C 91 % 1014,3 hPa 0,0 mm 3,2 km/h (1 Bft) W 270 0 min 0 UV-I 0 W/m 11,3 km/h (2 Bft)
21.12.2011 08:40 3,4 C 91 % 1014,2 hPa 0,0 mm 3,2 km/h (1 Bft) W-SW 247 0 min 0 UV-I 0 W/m 8,0 km/h (2 Bft)
21.12.2011 08:50 3,4 C 91 % 1014,2 hPa 0,0 mm 3,2 km/h (1 Bft) W-SW 247 0 min 0 UV-I 5 W/m 11,3 km/h (2 Bft)
21.12.2011 09:00 3,4 C 91 % 1014,2 hPa 0,0 mm 3,2 km/h (1 Bft) W-SW 247 0 min 0 UV-I 9 W/m 16,1 km/h (3 Bft)
21.12.2011 09:10 3,5 C 91 % 1014,3 hPa 0,0 mm 3,2 km/h (1 Bft) W 270 0 min 0 UV-I 16 W/m 14,5 km/h (3 Bft)
21.12.2011 09:20 3,6 C 91 % 1014,2 hPa 0,0 mm 3,2 km/h (1 Bft) W-SW 247 0 min 0 UV-I 19 W/m 14,5 km/h (3 Bft)
21.12.2011 09:30 3,6 C 91 % 1014,3 hPa 0,0 mm 3,2 km/h (1 Bft) W 270 0 min 0 UV-I 19 W/m 9,7 km/h (2 Bft)
21.12.2011 09:40 3,7 C 91 % 1014,5 hPa 0,0 mm 4,8 km/h (1 Bft) W-SW 247 0 min 0 UV-I 23 W/m 16,1 km/h (3 Bft)
21.12.2011 09:50 3,7 C 91 % 1014,4 hPa 0,0 mm 4,8 km/h (1 Bft) W-SW 247 0 min 0 UV-I 25 W/m 14,5 km/h (3 Bft)
21.12.2011 10:00 3,8 C 91 % 1014,5 hPa 0,0 mm 3,2 km/h (1 Bft) SW 225 0 min 0 UV-I 21 W/m 11,3 km/h (2 Bft)
21.12.2011 10:10 3,8 C 91 % 1014,5 hPa 0,0 mm 4,8 km/h (1 Bft) W 270 0 min 0 UV-I 30 W/m 12,9 km/h (3 Bft)
21.12.2011 10:20 3,9 C 91 % 1014,6 hPa 0,0 mm 3,2 km/h (1 Bft) SW 225 0 min 0 UV-I 33 W/m 11,3 km/h (2 Bft)
21.12.2011 10:30 3,9 C 91 % 1014,7 hPa 0,0 mm 4,8 km/h (1 Bft) W-SW 247 0 min 0 UV-I 33 W/m 11,3 km/h (2 Bft)
21.12.2011 10:40 4,0 C 91 % 1014,8 hPa 0,0 mm 3,2 km/h (1 Bft) W 270 0 min 0 UV-I 33 W/m 17,7 km/h (3 Bft)
21.12.2011 10:50 4,1 C 91 % 1014,8 hPa 0,0 mm 4,8 km/h (1 Bft) W-SW 247 0 min 0 UV-I 46 W/m 14,5 km/h (3 Bft)
21.12.2011 11:00 4,1 C 91 % 1014,8 hPa 0,0 mm 4,8 km/h (1 Bft) SW 225 0 min 0 UV-I 44 W/m 19,3 km/h (3 Bft)
21.12.2011 11:10 4,2 C 91 % 1014,9 hPa 0,0 mm 6,4 km/h (2 Bft) W-SW 247 0 min 0 UV-I 47 W/m 17,7 km/h (3 Bft)
21.12.2011 11:20 4,2 C 91 % 1014,9 hPa 0,0 mm 4,8 km/h (1 Bft) SW 225 0 min 0 UV-I 47 W/m 16,1 km/h (3 Bft)
21.12.2011 11:30 4,2 C 91 % 1015,0 hPa 0,0 mm 4,8 km/h (1 Bft) W 270 0 min 0 UV-I 32 W/m 14,5 km/h (3 Bft)
21.12.2011 11:40 4,3 C 91 % 1015,0 hPa 0,0 mm 4,8 km/h (1 Bft) W-SW 247 0 min 0 UV-I 33 W/m 17,7 km/h (3 Bft)
21.12.2011 11:50 4,3 C 91 % 1015,0 hPa 0,0 mm 4,8 km/h (1 Bft) W 270 0 min 0 UV-I 30 W/m 16,1 km/h (3 Bft)
21.12.2011 12:00 4,3 C 91 % 1015,0 hPa 0,0 mm 4,8 km/h (1 Bft) W-SW 247 0 min 0 UV-I 30 W/m 17,7 km/h (3 Bft)
21.12.2011 12:10 4,3 C 91 % 1014,9 hPa 0,0 mm 4,8 km/h (1 Bft) W 270 0 min 0 UV-I 33 W/m 14,5 km/h (3 Bft)
21.12.2011 12:20 4,4 C 91 % 1014,8 hPa 0,0 mm 4,8 km/h (1 Bft) W-SW 247 0 min 0 UV-I 37 W/m 16,1 km/h (3 Bft)
21.12.2011 12:30 4,4 C 91 % 1014,9 hPa 0,0 mm 4,8 km/h (1 Bft) W-SW 247 0 min 0 UV-I 40 W/m 14,5 km/h (3 Bft)
21.12.2011 12:40 4,4 C 91 % 1015,0 hPa 0,0 mm 4,8 km/h (1 Bft) W 270 0 min 0 UV-I 33 W/m 19,3 km/h (3 Bft)
21.12.2011 12:50 4,4 C 91 % 1015,0 hPa 0,0 mm 3,2 km/h (1 Bft) W-SW 247 0 min 0 UV-I 33 W/m 11,3 km/h (2 Bft)
21.12.2011 13:00 4,5 C 91 % 1014,9 hPa 0,0 mm 3,2 km/h (1 Bft) W 270 0 min 0 UV-I 39 W/m 9,7 km/h (2 Bft)
21.12.2011 13:10 4,6 C 91 % 1015,0 hPa 0,0 mm 4,8 km/h (1 Bft) W 270 0 min 0 UV-I 35 W/m 14,5 km/h (3 Bft)
21.12.2011 13:20 4,6 C 91 % 1015,0 hPa 0,0 mm 4,8 km/h (1 Bft) W-SW 247 0 min 0 UV-I 14 W/m 16,1 km/h (3 Bft)
21.12.2011 13:30 4,6 C 91 % 1014,8 hPa 0,5 mm 4,8 km/h (1 Bft) W 270 0 min 0 UV-I 11 W/m 14,5 km/h (3 Bft)
21.12.2011 13:40 4,6 C 91 % 1014,8 hPa 0,0 mm 1,6 km/h (1 Bft) W 270 0 min 0 UV-I 11 W/m 9,7 km/h (2 Bft)
21.12.2011 13:50 4,6 C 91 % 1014,8 hPa 0,0 mm 0,0 km/h (0 Bft) W-SW 247 0 min 0 UV-I 9 W/m 4,8 km/h (1 Bft)
21.12.2011 14:00 4,6 C 91 % 1014,9 hPa 0,0 mm 1,6 km/h (1 Bft) W 270 0 min 0 UV-I 7 W/m 9,7 km/h (2 Bft)
21.12.2011 14:10 4,6 C 91 % 1015,1 hPa 0,0 mm 3,2 km/h (1 Bft) W 270 0 min 0 UV-I 23 W/m 9,7 km/h (2 Bft)
21.12.2011 14:20 4,6 C 91 % 1015,2 hPa 0,0 mm 3,2 km/h (1 Bft) W-NW 292 0 min 0 UV-I 12 W/m 14,5 km/h (3 Bft)
21.12.2011 14:30 4,6 C 91 % 1015,1 hPa 0,0 mm 3,2 km/h (1 Bft) W 270 0 min 0 UV-I 16 W/m 14,5 km/h (3 Bft)
21.12.2011 14:40 4,6 C 91 % 1015,1 hPa 0,0 mm 1,6 km/h (1 Bft) W 270 0 min 0 UV-I 14 W/m 11,3 km/h (2 Bft)
21.12.2011 14:50 4,6 C 91 % 1015,1 hPa 0,0 mm 1,6 km/h (1 Bft) W 270 0 min 0 UV-I 18 W/m 9,7 km/h (2 Bft)
21.12.2011 15:00 4,6 C 91 % 1015,2 hPa 0,0 mm 1,6 km/h (1 Bft) W 270 0 min 0 UV-I 12 W/m 6,4 km/h (2 Bft)
21.12.2011 15:10 4,6 C 91 % 1015,3 hPa 0,0 mm 1,6 km/h (1 Bft) W 270 0 min 0 UV-I 11 W/m 8,0 km/h (2 Bft)
21.12.2011 15:20 4,6 C 91 % 1015,4 hPa 0,0 mm 1,6 km/h (1 Bft) W 270 0 min 0 UV-I 14 W/m 8,0 km/h (2 Bft)
21.12.2011 15:30 4,6 C 91 % 1015,4 hPa 0,0 mm 1,6 km/h (1 Bft) W 270 0 min 0 UV-I 12 W/m 9,7 km/h (2 Bft)
21.12.2011 15:40 4,7 C 91 % 1015,5 hPa 0,0 mm 1,6 km/h (1 Bft) W 270 0 min 0 UV-I 0 W/m 6,4 km/h (2 Bft)
21.12.2011 15:50 4,7 C 91 % 1015,5 hPa 0,0 mm 1,6 km/h (1 Bft) W-NW 292 0 min 0 UV-I 0 W/m 9,7 km/h (2 Bft)
21.12.2011 16:00 4,7 C 91 % 1015,7 hPa 0,0 mm 1,6 km/h (1 Bft) W-NW 292 0 min 0 UV-I 0 W/m 8,0 km/h (2 Bft)
21.12.2011 16:10 4,7 C 91 % 1015,9 hPa 0,0 mm 1,6 km/h (1 Bft) W-NW 292 0 min 0 UV-I 0 W/m 6,4 km/h (2 Bft)
21.12.2011 16:20 4,7 C 91 % 1015,7 hPa 0,0 mm 0,0 km/h (0 Bft) W-NW 292 0 min 0 UV-I 0 W/m 4,8 km/h (1 Bft)
21.12.2011 16:30 4,7 C 92 % 1015,8 hPa 0,0 mm 0,0 km/h (0 Bft) W-NW 292 0 min 0 UV-I 0 W/m 4,8 km/h (1 Bft)
21.12.2011 16:40 4,7 C 92 % 1016,1 hPa 0,0 mm 1,6 km/h (1 Bft) W-NW 292 0 min 0 UV-I 0 W/m 4,8 km/h (1 Bft)
21.12.2011 16:50 4,6 C 91 % 1016,1 hPa 0,0 mm 0,0 km/h (0 Bft) W-NW 292 0 min 0 UV-I 0 W/m 4,8 km/h (1 Bft)
21.12.2011 17:00 4,6 C 91 % 1016,2 hPa 0,0 mm 0,0 km/h (0 Bft) W-NW 292 0 min 0 UV-I 0 W/m 3,2 km/h (1 Bft)
21.12.2011 17:10 4,6 C 91 % 1016,2 hPa 0,0 mm 0,0 km/h (0 Bft) W-NW 292 0 min 0 UV-I 0 W/m 4,8 km/h (1 Bft)
21.12.2011 17:20 4,6 C 91 % 1016,3 hPa 0,0 mm 0,0 km/h (0 Bft) W-NW 292 0 min 0 UV-I 0 W/m 3,2 km/h (1 Bft)
21.12.2011 17:30 4,6 C 91 % 1016,3 hPa 0,0 mm 0,0 km/h (0 Bft) W-NW 292 0 min 0 UV-I 0 W/m 4,8 km/h (1 Bft)
21.12.2011 17:40 4,6 C 91 % 1016,6 hPa 0,0 mm 1,6 km/h (1 Bft) W-NW 292 0 min 0 UV-I 0 W/m 6,4 km/h (2 Bft)
21.12.2011 17:50 4,6 C 91 % 1016,5 hPa 0,0 mm 0,0 km/h (0 Bft) W-NW 292 0 min 0 UV-I 0 W/m 6,4 km/h (2 Bft)
21.12.2011 18:00 4,7 C 92 % 1016,7 hPa 0,0 mm 0,0 km/h (0 Bft) W-NW 292 0 min 0 UV-I 0 W/m 3,2 km/h (1 Bft)
21.12.2011 18:10 4,7 C 92 % 1017,0 hPa 0,0 mm 1,6 km/h (1 Bft) W 270 0 min 0 UV-I 0 W/m 9,7 km/h (2 Bft)
21.12.2011 18:20 4,7 C 92 % 1016,9 hPa 0,0 mm 1,6 km/h (1 Bft) W-SW 247 0 min 0 UV-I 0 W/m 9,7 km/h (2 Bft)
21.12.2011 18:30 4,7 C 92 % 1017,0 hPa 0,0 mm 1,6 km/h (1 Bft) W-SW 247 0 min 0 UV-I 0 W/m 6,4 km/h (2 Bft)
21.12.2011 18:40 4,7 C 92 % 1017,0 hPa 0,0 mm 1,6 km/h (1 Bft) W-SW 247 0 min 0 UV-I 0 W/m 9,7 km/h (2 Bft)
21.12.2011 18:50 4,7 C 92 % 1017,1 hPa 0,0 mm 1,6 km/h (1 Bft) W 270 0 min 0 UV-I 0 W/m 6,4 km/h (2 Bft)
21.12.2011 19:00 4,7 C 92 % 1017,2 hPa 0,0 mm 1,6 km/h (1 Bft) W 270 0 min 0 UV-I 0 W/m 6,4 km/h (2 Bft)
21.12.2011 19:10 4,7 C 92 % 1017,4 hPa 0,0 mm 1,6 km/h (1 Bft) W 270 0 min 0 UV-I 0 W/m 6,4 km/h (2 Bft)
21.12.2011 19:20 4,7 C 92 % 1017,4 hPa 0,0 mm 1,6 km/h (1 Bft) W 270 0 min 0 UV-I 0 W/m 6,4 km/h (2 Bft)
21.12.2011 19:30 4,7 C 92 % 1017,4 hPa 0,0 mm 1,6 km/h (1 Bft) W 270 0 min 0 UV-I 0 W/m 6,4 km/h (2 Bft)
21.12.2011 19:40 4,7 C 92 % 1017,4 hPa 0,0 mm 1,6 km/h (1 Bft) W 270 0 min 0 UV-I 0 W/m 8,0 km/h (2 Bft)
21.12.2011 19:50 4,7 C 92 % 1017,4 hPa 0,0 mm 1,6 km/h (1 Bft) W-SW 247 0 min 0 UV-I 0 W/m 6,4 km/h (2 Bft)
21.12.2011 20:00 4,7 C 92 % 1017,6 hPa 0,0 mm 0,0 km/h (0 Bft) W-SW 247 0 min 0 UV-I 0 W/m 6,4 km/h (2 Bft)
21.12.2011 20:10 4,7 C 92 % 1017,5 hPa 0,0 mm 1,6 km/h (1 Bft) W-SW 247 0 min 0 UV-I 0 W/m 4,8 km/h (1 Bft)
21.12.2011 20:20 4,7 C 92 % 1017,6 hPa 0,0 mm 1,6 km/h (1 Bft) W-SW 247 0 min 0 UV-I 0 W/m 6,4 km/h (2 Bft)
21.12.2011 20:30 4,7 C 92 % 1017,7 hPa 0,0 mm 1,6 km/h (1 Bft) W 270 0 min 0 UV-I 0 W/m 8,0 km/h (2 Bft)
21.12.2011 20:40 4,7 C 92 % 1017,8 hPa 0,0 mm 1,6 km/h (1 Bft) W 270 0 min 0 UV-I 0 W/m 6,4 km/h (2 Bft)
21.12.2011 20:50 4,7 C 92 % 1017,7 hPa 0,0 mm 1,6 km/h (1 Bft) W 270 0 min 0 UV-I 0 W/m 8,0 km/h (2 Bft)
21.12.2011 21:00 4,8 C 92 % 1018,2 hPa 0,0 mm 1,6 km/h (1 Bft) W 270 0 min 0 UV-I 0 W/m 8,0 km/h (2 Bft)
21.12.2011 21:10 4,8 C 92 % 1018,0 hPa 0,0 mm 3,2 km/h (1 Bft) W-SW 247 0 min 0 UV-I 0 W/m 8,0 km/h (2 Bft)
21.12.2011 21:20 4,8 C 92 % 1018,1 hPa 0,0 mm 3,2 km/h (1 Bft) W-SW 247 0 min 0 UV-I 0 W/m 8,0 km/h (2 Bft)
21.12.2011 21:30 4,8 C 92 % 1018,2 hPa 0,0 mm 3,2 km/h (1 Bft) W 270 0 min 0 UV-I 0 W/m 9,7 km/h (2 Bft)
21.12.2011 21:40 4,8 C 92 % 1018,2 hPa 0,0 mm 1,6 km/h (1 Bft) W 270 0 min 0 UV-I 0 W/m 6,4 km/h (2 Bft)
21.12.2011 21:50 4,8 C 92 % 1018,4 hPa 0,0 mm 3,2 km/h (1 Bft) W 270 0 min 0 UV-I 0 W/m 11,3 km/h (2 Bft)
21.12.2011 22:00 4,8 C 92 % 1018,5 hPa 0,3 mm 1,6 km/h (1 Bft) W 270 0 min 0 UV-I 0 W/m 4,8 km/h (1 Bft)
21.12.2011 22:10 4,8 C 92 % 1018,7 hPa 0,0 mm 1,6 km/h (1 Bft) W 270 0 min 0 UV-I 0 W/m 8,0 km/h (2 Bft)
21.12.2011 22:20 4,8 C 92 % 1018,6 hPa 0,0 mm 0,0 km/h (0 Bft) W 270 0 min 0 UV-I 0 W/m 4,8 km/h (1 Bft)
21.12.2011 22:30 4,8 C 92 % 1018,7 hPa 0,0 mm 0,0 km/h (0 Bft) W 270 0 min 0 UV-I 0 W/m 4,8 km/h (1 Bft)
21.12.2011 22:40 4,8 C 92 % 1018,8 hPa 0,0 mm 0,0 km/h (0 Bft) W 270 0 min 0 UV-I 0 W/m 6,4 km/h (2 Bft)
21.12.2011 22:50 4,8 C 92 % 1018,8 hPa 0,0 mm 0,0 km/h (0 Bft) W 270 0 min 0 UV-I 0 W/m 4,8 km/h (1 Bft)
21.12.2011 23:00 4,8 C 92 % 1018,9 hPa 0,0 mm 0,0 km/h (0 Bft) W 270 0 min 0 UV-I 0 W/m 3,2 km/h (1 Bft)
21.12.2011 23:10 4,8 C 92 % 1019,0 hPa 0,0 mm 0,0 km/h (0 Bft) W 270 0 min 0 UV-I 0 W/m 4,8 km/h (1 Bft)
21.12.2011 23:20 4,8 C 92 % 1019,0 hPa 0,0 mm 0,0 km/h (0 Bft) W 270 0 min 0 UV-I 0 W/m 3,2 km/h (1 Bft)
21.12.2011 23:30 4,8 C 92 % 1018,9 hPa 0,0 mm 0,0 km/h (0 Bft) W 270 0 min 0 UV-I 0 W/m 1,6 km/h (1 Bft)
21.12.2011 23:40 4,8 C 92 % 1019,1 hPa 0,0 mm 0,0 km/h (0 Bft) W 270 0 min 0 UV-I 0 W/m 1,6 km/h (1 Bft)
21.12.2011 23:50 4,8 C 92 % 1019,1 hPa 0,0 mm 0,0 km/h (0 Bft) W 270 0 min 0 UV-I 0 W/m 1,6 km/h (1 Bft)
_ Min-Zeit 06:30 02:00 00:00 - 13:50 - - - - - 23:30
Minimum _ 3,4 C 91 % 1011,3 hPa - 0,0 km/h (0 Bft) - - - - - 1,6 km/h (1 Bft)
_ Max-Zeit 00:00 00:00 23:40 13:30 00:30 - - 00:00 00:00 11:10 00:10
Maximum _ 4,9 C 92 % 1019,1 hPa 0,5 mm 9,7 km/h
W (2 Bft)
- - 0 min 0 UV-I 47 W/m 25,7 km/h
W-SW (4 Bft)
Durchschnitt _ 4,3 C 91 % 1015,1 hPa #1,3 mm 3,3 km/h (1 Bft) W - #0 min. 0 UV-I 25 W/m 11,6 km/h (2 Bft)